Вернуться в каталог

STARLINK-4491

АктивенСвязьVLEO
NORAD 53408·PAYLOAD·🇺🇸 United States

Запущен Aug 10, 2022 с Cape Canaveral Space Force Station

Loading…

Ближайшие Пролёты (ближайшие 24 часа)

TLE

СвежийSource: CelesTrak SupGP

Эпоха: Sep 14, 2026, 21:34 UTC

1 53408C 22097W   26257.89909722  .00201350  00000+0  97100-2 0  2574
2 53408  53.1604 343.5957 0001290  85.3102 199.4583 15.18090042    18

Отслеживайте STARLINK-4491 в реальном времени с AllMySat

Download on the App Store